SL-14 DEB, 45280

Orbit data source: Space-Track

SL-14 DEB, 45280 is space debris in LEO originally from a launch on Thu, 15 Aug 1991 UTC launched from the Plesetsk Missile And Space Complex (PKMTR). Debris objects in space refer to the collection of defunct objects orbiting the Earth. Examples of debris include non-operational satellites, rocket bodies, and fragments generated from explosions, collisions, or faulty payload assembly.

Loading next visibility...
Identifier
45280, 1991-056S
Orbit
LEO
Country
Flag of CISCIS
Related business
Manufacturer
Unknown
Mission
Spacecraft
Bus & Motor
Unknown
Mass
Unknown
Launch date (UTC)
1991-08-15 (35 years ago)
Launch vehicle
Unknown
Launch site
Plesetsk Missile And Space Complex (PKMTR)
Object type
Payload
Rocket body
Debris
Shape & HBR
Unknown shape, 0.1 m
Radar Cross Section
Small (<0.1 m²)

Expand to show TLE details & history
Last TLE update: 9 hours ago

TLE from 9 hours ago
0 SL-14 DEB
1 45280U 91056S   26128.15811217  .00001110  00000-0  26523-2 0  9998
2 45280  82.5884 171.8783 0024722  86.8526 273.5427 13.21825387299823
Epoch: 2026-05-08T03:47Z
TLE epoch observation values (Epoch: 2026-05-08T03:47:40.891Z)
Latitude
-0.00005°
Longitude
-111.036°
Altitude
1,179.463 km
Speed
7.264 km/s
True Right ascension
11h 27m 30s
True Declination
0° 00' 00"
Sunlit
Object was in full shadow at epoch
Visualization orbit readout
Latitude
Unknown
Longitude
Unknown
Altitude
Unknown
Speed
Unknown
Apparent Right ascension
Unknown
Apparent Declination
Unknown
Sunlit
N/A
Visualization observer readout
Local Sidereal Time
20:58:59
Azimuth
Unknown
Elevation
Unknown
Doppler factor
Unknown
Orbital elements
Apogee altitude
1,193.665 km
Perigee altitude
1,156.319 km
Semi-major axis
7,553.129 km
Eccentricity
0.00247
Inclination
82.5884°
RAAN
171.8783°
Arg. of periapsis
86.8526°
True anomaly
273.2599°
Mean anomaly
273.5427°
Eccentric anomaly
273.4013°
Mean motion
3.30638 °/min
Orbital period
108.88 mins
BSTAR
0.0026523
Loading maneuver chart data...
Computing Atmospheric mass density...
Loading historical data...
Loading historical data...
Loading historical data...
Loading historical data...
Loading historical data...
Loading historical data...
Loading historical data...

Documentation

Showing up to 5 results
|